Location: Buch
(49.7331°N, 12.1098°E)
Time: 09:31:17
(UTC+00:00)

Cosmos 2315 Rocket - Pass Details

Date: 12 May 2021
Orbit: 965 x 1002 km, 82.9° (Epoch: 14 June)

Event Time Altitude Azimuth Distance (km) Brightness Sun altitude
Rises 20:09:24 0° 193° (SSW) 3,711 6.7 -11.3°
Reaches altitude 10° 20:11:55 10° 195° (SSW) 2,767 6.1 -11.6°
Maximum altitude 20:18:18 76° 281° (W) 1,038 4.3 -12.3°
Drops below altitude 10° 20:24:43 10° 7° (N) 2,785 7.0 -12.9°
Sets 20:27:16 0° 9° (N) 3,736 7.7 -13.2°
